Location: Forfry
(49.0572°N, 2.8481°E)
Time: 12:57:40
(UTC+00:00)

Daily predictions for brighter satellites

Satellite Brightness Start Highest point End
(mag) Time Altitude Azimuth Time Altitude Azimuth Time Altitude Azimuth
Cosmos 1980 Rocket 3.4 20:27:49 10° NNW 20:32:56 33° NE 20:38:01 10° ESE
Cosmos 1697 Rocket 3.1 20:27:57 10° NNW 20:33:29 54° NE 20:38:58 10° SE
Cosmos 2344 4.5 20:26:49 10° NW 20:35:15 64° NE 20:46:50 10° ESE
USA 32 4.1 20:30:19 10° S 20:35:31 82° E 20:40:47 10° N
SL-8 R/B 3.9 20:31:15 10° W 20:36:00 59° SSW 20:40:43 10° ESE
TSX-5 4.5 20:34:00 10° SSW 20:38:35 71° ESE 20:44:36 10° NE
SPOT 1/Viking Rocket 4.0 20:36:30 10° S 20:41:35 63° WSW 20:46:44 10° NNW
COSMOS 2406 4.2 20:38:46 10° SSE 20:43:33 28° ESE 20:48:21 10° NE
Cosmos 2154 Rocket 4.4 20:37:41 10° N 20:43:44 50° ENE 20:49:44 10° SSE
X-37B 1.2 20:41:48 10° WSW 20:44:21 31° S 20:46:54 10° ESE
Spot 2 Rocket 3.8 20:39:26 10° SE 20:44:24 55° ENE 20:49:24 10° N
Cosmos 1025 Rocket 4.2 20:41:12 10° SSW 20:45:18 45° WNW 20:49:29 10° N
SPOT 5 2.8 20:50:02 10° SSE 20:54:20 61° ENE 20:58:37 10° N
Cosmos 2084 Rocket 3.6 20:52:15 10° NW 20:56:07 59° NE 21:00:03 10° SE
Cosmos 1703 3.3 20:52:38 10° S 20:56:27 63° E 21:00:16 10° NNE
RESURS DK-1 2.6 20:53:03 10° NW 20:57:10 66° WSW 21:01:15 10° SSE
Cosmos 1452 Rocket 3.5 20:53:59 10° SSW 20:59:15 85° ESE 21:04:32 10° NNE
Cosmos 1833 Rocket 2.8 20:53:58 10° S 20:59:26 58° ESE 21:04:58 10° NE
Terra 2.2 20:56:28 10° SE 21:01:03 52° ENE 21:05:41 10° N
CZ-4B R/B 2.4 20:58:55 10° N 21:01:40 40° WNW 21:04:23 10° SW
Helios 1A Rocket 3.0 21:01:06 10° SSE 21:05:07 72° ENE 21:09:14 10° N
Cosmos 1110 Rocket 4.1 21:00:03 10° S 21:05:15 64° ESE 21:10:31 10° NNE
FALCON 9 DEB 4.0 21:02:12 10° WNW 21:05:22 45° N 21:08:32 10° E
ERS-1 Rocket 3.0 21:02:34 10° SSE 21:07:35 74° ENE 21:12:37 10° N
Cosmos 2322 Rocket 4.4 21:03:56 10° N 21:07:40 17° NE 21:11:23 10° ENE
Resurs 01 Rocket 3.5 21:04:26 10° SSW 21:08:16 28° W 21:12:07 10° NW
Cosmos 2228 3.0 21:06:52 10° N 21:11:07 88° E 21:15:15 11° S
Cosmos 2058 Rocket 4.3 21:08:03 10° N 21:11:58 29° ENE 21:15:19 13° SE
Cosmos 2184 Rocket 4.2 21:08:51 10° NNW 21:15:02 77° W 21:21:14 10° S
Cosmos 1825 4.4 21:15:21 10° ESE 21:16:38 11° E 21:17:56 10° ENE
Lacrosse 5 4.0 21:14:17 10° W 21:17:22 16° WSW 21:20:26 10° SSW
Cosmos 1408 3.9 21:16:14 15° SE 21:18:05 22° E 21:20:47 10° NE
Cosmos 968 Rocket 3.8 21:17:09 10° NNW 21:22:19 60° ENE 21:26:36 15° SE
Cosmos 1328 3.9 21:22:05 12° S 21:25:43 58° E 21:29:39 10° NNE
USA 276 2.2 21:24:17 10° W 21:27:19 71° N 21:30:21 10° E
SJ 16-02 3.7 21:28:55 10° NNE 21:31:15 14° NE 21:33:35 10° E
Cosmos 1867 3.7 21:26:32 10° NW 21:32:01 73° NE 21:36:30 16° SE
Cosmos 2082 Rocket 2.5 21:27:52 10° S 21:33:18 46° ESE 21:38:43 10° NE
USA 267 4.0 21:31:28 10° ENE 21:37:07 30° SE 21:42:43 10° S
ARIANE 5 R/B 2.6 21:35:43 16° SSE 21:39:12 85° ENE 21:43:39 10° NNW
Cosmos 1606 Rocket 3.7 21:35:30 10° NNW 21:39:50 73° W 21:43:23 15° S
GP-B 3.8 21:36:38 10° NNE 21:40:50 39° E 21:43:35 19° SE
Cosmos 2341 Rocket 4.2 21:35:51 10° N 21:42:09 64° ENE 21:47:01 17° SSE
Cosmos 2360 Rocket 4.3 21:39:42 10° N 21:43:48 20° NE 21:47:54 10° E
Meteor 1-21 Rocket 4.4 21:38:23 10° SSW 21:43:58 75° WNW 21:49:44 10° N
Cosmos 192 4.3 21:43:34 10° SSW 21:48:26 76° ESE 21:53:22 10° NNE
Okean 1-7 Rocket 4.3 21:58:40 22° SSE 22:01:01 39° E 22:05:13 10° NNE
SAR-Lupe-1 4.2 21:58:20 10° NNE 22:01:52 54° ESE 22:03:39 26° S
Cosmos 1726 Rocket 4.0 21:58:17 10° NNW 22:02:31 55° W 22:05:41 17° SSW
Cosmos 1892 2.6 22:02:06 24° S 22:04:13 66° E 22:07:59 10° NNE
Cosmos 2181 Rocket 4.1 22:07:21 19° S 22:11:45 64° E 22:17:56 10° NNE
USA 234 3.6 22:06:20 10° ESE 22:12:49 65° NNE 22:19:19 10° NW
Cosmos 1633 4.0 22:12:09 20° ESE 22:12:58 22° E 22:15:42 10° NE
Cosmos 1697 Rocket 4.1 22:12:25 10° NW 22:17:08 28° WSW 22:21:16 13° SSW
Cosmos 1980 Rocket 2.6 22:11:41 10° NW 22:17:13 53° WSW 22:20:52 21° S
SL-16 R/B 2.8 22:11:45 10° NNW 22:17:18 51° NE 22:21:23 18° SE
Cosmos 1486 Rocket 4.0 22:12:39 10° NNW 22:17:54 78° ENE 22:21:05 24° SSE
Cosmos 1992 Rocket 4.1 22:15:18 21° S 22:18:39 56° ESE 22:23:47 10° NNE
X-37B 2.8 22:17:46 10° WSW 22:18:13 12° SW 22:18:13 12° SW
Cosmos 1812 Rocket 4.4 22:15:38 10° N 22:19:53 40° ENE 22:22:08 23° SE
Cosmos 1932 4.4 22:14:14 10° SSW 22:20:22 66° ESE 22:26:40 10° NE
Cosmos 2369 4.4 22:15:21 10° NW 22:20:47 45° WSW 22:24:30 19° S
Cosmos 2219 Rocket 4.5 22:16:58 10° N 22:20:50 18° NE 22:24:40 10° E
COSMOS 2406 3.9 22:21:51 10° SW 22:27:31 57° WNW 22:33:13 10° NNE
Cosmos-2242 3.8 22:25:13 10° N 22:29:14 39° ENE 22:31:12 24° SE
ATLAS 5 CENTAUR R/B 1.3 22:29:23 27° SSW 22:31:11 57° SE 22:35:18 10° NE
Cosmos 1869 3.2 22:29:32 10° N 22:33:27 86° W 22:35:09 33° S
Cosmos 807 4.3 22:30:42 10° N 22:33:46 57° ENE 22:34:24 44° SE
Cosmos 1602 Rocket 3.9 22:32:12 29° SSE 22:33:58 48° E 22:38:08 10° NNE
In-Cosmos 22 Rocket 4.1 22:30:23 20° S 22:34:19 89° W 22:39:47 10° NNE
ERS-2 4.3 22:35:32 10° ENE 22:37:17 13° E 22:37:40 13° E
Terra 3.7 22:35:24 10° SW 22:39:05 22° W 22:42:48 10° NW
Meteor 1-27 4.3 22:33:42 10° NNW 22:39:15 74° W 22:42:35 25° S
FALCON 9 DEB 3.0 22:38:29 10° WNW 22:41:43 57° SSW 22:42:17 48° SSE
ALOS 2 3.2 22:39:48 25° SE 22:41:59 47° ENE 22:46:13 10° N
ASTEX 1 3.9 22:37:18 10° N 22:42:13 56° WNW 22:45:50 18° SSW
Cosmos 1354 Rocket 4.2 22:40:49 10° NNW 22:46:08 68° ENE 22:49:06 26° SE
BREEZE-M DEB (TANK) 3.5 22:44:50 10° W 22:47:55 88° S 22:59:17 10° ESE
SL-8 Rocket 4.5 22:42:47 10° NNW 22:48:49 53° W 22:53:01 20° SSW
Cosmos 2058 Rocket 4.4 22:46:01 10° NNW 22:49:56 32° W 22:52:35 17° SW
ADEOS Rocket 3.7 22:45:43 22° SE 22:50:47 68° ENE 22:58:30 10° N
Cosmos 1825 2.4 22:49:40 28° SSW 22:51:26 62° WNW 22:55:10 10° N
Cosmos 1408 4.3 22:50:12 13° SW 22:52:38 26° WNW 22:55:36 10° NNW
Cosmos 2322 Rocket 2.4 22:47:10 10° NNW 22:52:51 66° ENE 22:56:24 23° SE
Cosmos 1503 Rocket 4.0 22:50:35 10° NNW 22:55:55 85° WSW 22:58:35 30° SSE
Cosmos 1626 Rocket 3.7 22:54:43 26° SSW 22:57:02 68° WNW 23:01:24 10° N
USA 276 2.1 23:00:05 10° W 23:02:50 54° SW 23:02:50 54° SW
Cosmos 1777 Rocket 4.2 22:58:40 10° NNW 23:03:57 64° ENE 23:06:53 26° SE
Cosmos 2333 Rocket 3.3 23:02:32 10° NNW 23:07:58 40° NE 23:12:52 12° ESE
Cosmos 1825 Rocket 3.9 23:08:17 34° SE 23:09:44 49° E 23:13:56 10° NNE
SJ 16-02 1.3 23:06:04 10° NNW 23:10:32 86° ENE 23:12:19 36° SSE
Gbstr 26 Del rocket 3.9 23:11:08 31° SE 23:11:10 31° SE 23:15:33 10° ENE
Cosmos 1340 Rocket 3.7 23:13:04 29° ESE 23:13:59 33° E 23:17:35 10° NNE
Meteor 2-20 4.4 23:13:52 26° S 23:17:28 87° WNW 23:23:36 10° N
Cosmos 2082 Rocket 3.6 23:12:16 10° WSW 23:17:31 36° NW 23:22:46 10° NNE
H-2A R/B 3.4 23:15:07 10° NNE 23:19:21 83° ESE 23:20:55 38° S
USA 267 3.2 23:14:06 10° ENE 23:20:42 86° SSE 23:27:15 10° SW
Cosmos 2221 3.5 23:22:14 10° N 23:26:21 39° ENE 23:28:17 25° SE
Cosmos 1606 2.7 23:23:19 10° NNW 23:27:10 71° W 23:28:16 44° SSW
Cosmos 2058 2.9 23:26:08 41° SSE 23:27:30 70° E 23:31:41 10° NNE
Cosmos 2360 Rocket 2.2 23:23:02 10° NNW 23:28:45 79° ENE 23:31:59 27° SE
Cosmos 1934 Rocket 4.0 23:23:37 10° N 23:29:43 72° E 23:33:06 28° SSE
Meteor 2-2 Rocket 4.4 23:35:26 10° NNW 23:41:29 84° WSW 23:44:36 30° S
Cosmos 1833 4.5 23:39:57 32° SSE 23:42:14 51° ESE 23:47:39 10° NE
Cosmos 44 3.7 23:41:21 36° SSE 23:42:23 41° ESE 23:46:36 10° NE
Cosmos 2237 4.4 23:38:46 10° NW 23:44:22 56° WSW 23:46:53 32° S
Cosmos 1633 4.2 23:45:56 20° WSW 23:47:20 26° WNW 23:50:18 10° NNW
Cosmos 1758 Rocket 4.5 23:45:44 24° SW 23:47:53 41° WNW 23:52:04 10° N
Cosmos 2237 Rocket 4.4 23:48:29 10° N 23:52:52 22° NE 23:57:13 10° E
Cosmos 1339 Rocket 4.5 23:50:04 30° S 23:53:19 76° E 23:59:27 10° NNE
